DW2659 Weather Reports


time (UTC)temp
F
wind
direction
speed
knots
gust
knots
rain 1hr
in
rain 24hr
in
rain mn
in
humidity
%
barometer
mb
20260831180903 92 4 0.9 2.6 0.00 0.00 0.00 53 1020.4
20260831180405 92 60 0.9 1.7 0.00 0.00 0.00 55 1020.4
20260831175903 92 113 0.9 1.7 0.00 0.00 0.00 55 1020.5
20260831175403 92 272 0.9 2.6 0.00 0.00 0.00 53 1020.5
20260831173903 92 52 0.9 2.6 0.00 0.00 0.00 53 1021.1
20260831173405 92 323 0.9 1.7 0.00 0.00 0.00 54 1021.1
20260831172903 91 17 0.9 2.6 0.00 0.00 0.00 56 1021.1
20260831172403 91 136 1.7 2.6 0.00 0.00 0.00 54 1021.1
20260831171904 90 129 2.6 4.3 0.00 0.00 0.00 55 1021.1
20260831171403 90 83 0.9 4.3 0.00 0.00 0.00 57 1021.1
20260831170903 90 329 0.9 1.7 0.00 0.00 0.00 57 1021.1
20260831170405 89 84 0.9 2.6 0.00 0.00 0.00 59 1021.1
20260831165903 88 77 1.7 2.6 0.00 0.00 0.00 59 1021.1
20260831165403 88 2 0.9 2.6 0.00 0.00 0.00 67 1021.1
20260831164904 87 44 0.9 1.7 0.00 0.00 0.00 65 1021.1
20260831164404 86 253 0.9 0.9 0.00 0.00 0.00 69 1021.5
20260831163404 87 253 0.0 0.0 0.00 0.00 0.00 68 1021.5
20260831162904 87 253 0.0 0.9 0.00 0.00 0.00 67 1021.5
20260831162404 86 253 0.0 0.9 0.00 0.00 0.00 68 1021.5
20260831161905 86 253 0.0 2.6 0.00 0.00 0.00 66 1021.5
20260831161403 86 252 1.7 2.6 0.00 0.00 0.00 64 1021.5
20260831160903 87 261 1.7 2.6 0.00 0.00 0.00 65 1021.5
20260831160404 87 247 0.9 2.6 0.00 0.00 0.00 65 1021.5
20260831155403 87 93 2.6 4.3 0.00 0.00 0.00 63 1021.5
20260831154904 87 198 2.6 5.2 0.00 0.00 0.00 62 1021.5
20260831154404 87 61 0.9 2.6 0.00 0.00 0.00 64 1021.5
20260831153903 87 122 1.7 4.3 0.00 0.00 0.00 66 1021.5
20260831153404 87 132 3.5 4.3 0.00 0.00 0.00 63 1021.5
20260831152403 86 20 0.9 1.7 0.00 0.00 0.00 67 1021.6
20260831151903 86 63 1.7 2.6 0.00 0.00 0.00 67 1021.6
20260831151404 85 8 1.7 4.3 0.00 0.00 0.00 67 1021.6
20260831150904 85 120 2.6 4.3 0.00 0.00 0.00 67 1021.6
20260831150403 85 78 1.7 2.6 0.00 0.00 0.00 69 1021.6
20260831145403 84 53 0.9 2.6 0.00 0.00 0.00 69 1021.7
20260831144903 84 162 1.7 6.1 0.00 0.00 0.00 68 1021.5
20260831144405 84 100 2.6 5.2 0.00 0.00 0.00 68 1021.5
20260831143904 84 248 1.7 5.2 0.00 0.00 0.00 67 1021.5
20260831142905 84 191 2.6 5.2 0.00 0.00 0.00 67 1021.6
20260831142403 83 177 0.9 2.6 0.00 0.00 0.00 69 1021.6
20260831141904 83 188 3.5 5.2 0.00 0.00 0.00 70 1021.6
20260831141405 83 118 1.7 4.3 0.00 0.00 0.00 73 1021.5
20260831140903 83 230 1.7 5.2 0.00 0.00 0.00 71 1021.5
20260831140403 82 166 2.6 5.2 0.00 0.00 0.00 72 1021.5
20260831135403 82 149 2.6 5.2 0.00 0.00 0.00 76 1021.2
20260831134903 81 112 1.7 4.3 0.00 0.00 0.00 76 1021.2
20260831134404 80 149 0.9 2.6 0.00 0.00 0.00 79 1021.2
20260831133903 79 118 1.7 2.6 0.00 0.00 0.00 81 1021.2
20260831133403 78 156 0.9 2.6 0.00 0.00 0.00 84 1021.2
20260831132905 77 124 0.9 2.6 0.00 0.00 0.00 87 1021.2
20260831132403 76 167 0.9 2.6 0.00 0.00 0.00 89 1021.2
20260831131904 75 218 0.9 4.3 0.00 0.00 0.00 91 1021.2
20260831131405 74 202 0.9 2.6 0.00 0.00 0.00 94 1021.1
20260831130903 74 319 0.0 0.0 0.00 0.00 0.00 95 1021.1
20260831130403 73 319 0.0 0.0 0.00 0.00 0.00 95 1021.1
20260831125904 73 319 0.0 0.0 0.00 0.00 0.00 95 1021.1
20260831125403 72 319 0.0 0.0 0.00 0.00 0.00 95 1021.1
20260831124904 72 319 0.0 0.0 0.00 0.00 0.00 95 1021.1
20260831123404 71 319 0.0 0.0 0.00 0.00 0.00 95 1021.0
20260831122905 70 319 0.0 0.0 0.00 0.00 0.00 95 1020.9
20260831122404 70 319 0.0 0.0 0.00 0.00 0.00 95 1020.9
20260831120903 69 319 0.0 0.0 0.00 0.00 0.00 94 1020.9
20260831120403 69 319 0.0 0.0 0.00 0.00 0.00 94 1020.9
20260831115905 69 319 0.0 0.0 0.00 0.00 0.00 94 1020.8
20260831115403 69 319 0.0 0.0 0.00 0.00 0.00 94 1020.8
20260831114903 69 319 0.0 0.0 0.00 0.00 0.00 94 1020.8
20260831114404 69 319 0.0 0.0 0.00 0.00 0.00 94 1020.7
20260831113904 69 319 0.0 0.0 0.00 0.00 0.00 94 1020.7
20260831113404 69 319 0.0 0.0 0.00 0.00 0.00 94 1020.7
20260831112404 69 319 0.0 0.0 0.00 0.00 0.00 94 1020.5
20260831111903 69 319 0.0 0.0 0.00 0.00 0.00 94 1020.5
20260831111404 69 319 0.0 0.0 0.00 0.00 0.00 93 1020.4
20260831110404 69 319 0.0 0.0 0.00 0.00 0.00 93 1020.4
20260831105905 69 319 0.0 0.9 0.00 0.00 0.00 93 1020.0
20260831105404 69 319 0.0 0.9 0.00 0.00 0.00 94 1020.0
20260831104405 69 319 0.0 0.9 0.00 0.00 0.00 94 1020.0
20260831103903 69 319 0.9 1.7 0.00 0.00 0.00 94 1020.0
20260831103404 69 319 0.0 0.9 0.00 0.00 0.00 94 1020.0
20260831102905 69 319 0.9 1.7 0.00 0.00 0.00 94 1019.9
20260831102404 69 319 0.9 1.7 0.00 0.00 0.00 94 1019.9
20260831101904 69 319 0.9 1.7 0.00 0.00 0.00 94 1019.7
20260831101405 69 319 0.0 0.9 0.00 2.00 0.00 94 1019.7
20260831100404 69 319 0.0 1.7 0.00 2.00 0.00 94 1019.7
20260831095904 69 319 0.0 0.9 0.00 2.00 0.00 93 1019.6
20260831095403 69 319 0.0 0.0 0.00 2.00 0.00 93 1019.6
20260831094903 70 319 0.0 0.0 0.00 2.00 0.00 93 1019.6
20260831094405 70 319 0.0 0.0 0.00 2.00 0.00 93 1019.5
20260831093903 70 319 0.0 0.0 0.00 2.00 0.00 93 1019.5
20260831093403 70 319 0.0 0.0 0.00 2.00 0.00 93 1019.5
20260831092905 70 319 0.0 0.0 0.00 2.00 0.00 93 1019.5
20260831092404 70 319 0.0 0.0 0.00 2.00 0.00 93 1019.5
20260831091903 70 319 0.0 0.0 0.00 2.00 0.00 93 1019.5
20260831091404 70 319 0.0 0.0 0.00 2.00 0.00 94 1019.5
20260831090904 70 319 0.0 0.0 0.00 2.00 0.00 93 1019.5
20260831090404 70 319 0.0 0.0 0.00 2.00 0.00 93 1019.5
20260831085905 70 319 0.0 0.0 0.00 2.00 0.00 93 1019.4
20260831085403 70 319 0.0 0.0 0.00 2.00 0.00 93 1019.4
20260831084904 70 319 0.0 0.0 0.00 2.00 0.00 93 1019.3
20260831083904 71 319 0.0 0.0 0.00 2.00 0.00 93 1019.4
20260831083404 71 319 0.0 0.0 0.00 2.00 0.00 93 1019.4
20260831082905 71 319 0.0 0.0 0.00 2.00 0.00 93 1019.3
20260831082404 71 319 0.0 0.0 0.00 2.00 0.00 93 1019.2
20260831081903 71 319 0.0 0.0 0.00 2.00 0.00 93 1019.2
20260831081403 71 319 0.0 0.0 0.00 2.00 0.00 93 1019.2
20260831080902 71 319 0.0 0.0 0.00 2.00 0.00 93 1019.1
20260831075904 71 319 0.0 0.0 0.00 2.00 0.00 93 1019.1
20260831075402 71 319 0.0 0.0 0.00 2.00 0.00 93 1019.1
20260831074902 71 319 0.0 0.0 0.00 2.00 0.00 93 1019.1
20260831074403 71 319 0.0 0.0 0.00 2.00 0.00 93 1019.2
20260831073902 71 319 0.0 0.0 0.00 2.00 0.00 93 1019.2
20260831073402 71 319 0.0 0.0 0.00 2.00 0.00 93 1019.2
20260831072904 71 319 0.0 0.0 0.00 2.00 0.00 93 1019.3
20260831071902 71 319 0.0 0.0 0.00 2.00 0.00 93 1019.3
20260831071404 71 319 0.0 0.0 0.00 2.00 0.00 93 1019.3
20260831070902 71 319 0.0 0.0 0.00 2.00 0.00 93 1019.3
20260831070402 71 319 0.0 0.0 0.00 2.00 0.00 93 1019.3
20260831065402 71 319 0.0 0.0 0.00 2.00 0.00 93 1019.3
20260831064903 71 319 0.0 0.0 0.00 2.00 0.00 93 1019.3
20260831063402 71 319 0.0 0.0 0.00 2.00 0.00 93 1019.3
20260831062904 71 319 0.0 0.0 0.00 2.00 0.00 93 1019.3
20260831062402 71 319 0.0 0.0 0.00 2.00 0.00 93 1019.3
20260831061902 71 319 0.0 0.0 0.00 2.00 0.00 93 1019.3
20260831061404 71 319 0.0 0.0 0.00 2.00 0.00 93 1019.4
20260831060902 71 319 0.0 0.0 0.00 2.00 0.00 93 1019.4
20260831060403 71 319 0.0 0.0 0.00 2.00 0.00 93 1019.4
20260831055903 71 319 0.0 0.0 0.00 2.00 0.00 92 1019.4
20260831055402 71 319 0.0 0.0 0.00 2.00 0.00 92 1019.5
20260831054903 72 319 0.0 0.9 0.00 2.00 0.00 92 1019.5
20260831054404 72 319 0.0 0.9 0.00 2.00 0.00 92 1019.6
20260831053902 72 319 0.0 0.0 0.00 2.00 0.00 92 1019.6
20260831053402 72 319 0.9 0.9 0.00 2.00 0.00 92 1019.6
20260831052402 72 319 0.9 0.9 0.00 2.00 0.00 92 1019.7
20260831051404 72 319 0.0 0.0 0.00 2.00 0.00 92 1019.4
20260831050902 72 319 0.9 0.9 0.00 2.00 0.00 92 1019.6
20260831045903 72 319 0.0 0.0 0.00 2.00 0.00 92 1019.6
20260831045404 72 319 0.0 0.0 0.00 2.00 0.00 92 1019.6
20260831044902 72 319 0.0 0.0 0.00 2.00 0.00 92 1019.6
20260831044402 72 319 0.0 0.0 0.00 2.00 0.00 92 1019.6
20260831043905 72 319 0.0 0.0 0.00 2.00 0.00 92 1019.6
20260831043403 72 319 0.0 0.0 0.00 2.00 0.00 92 1019.6
20260831042403 72 319 0.0 0.0 0.00 2.00 0.00 91 1019.6
20260831041902 72 319 0.0 0.0 0.00 2.00 0.00 91 1019.5
20260831041403 72 319 0.0 0.0 0.00 2.00 0.00 91 1019.7
20260831040903 72 319 0.0 0.0 0.00 2.00 0.00 91 1019.7
20260831040402 72 319 0.0 0.0 0.00 2.00 0.00 91 1019.7
20260831035902 73 319 0.0 0.0 0.00 2.00 0.00 91 1019.7
20260831035404 73 319 0.0 0.0 0.00 2.00 0.00 91 1019.8
20260831034902 73 319 0.0 0.9 0.00 2.00 0.00 91 1019.8
20260831034403 73 319 0.9 0.9 0.00 2.00 0.00 91 1019.6
20260831033904 73 319 0.0 0.0 0.00 2.00 0.00 91 1019.7
20260831033403 73 319 0.0 0.0 0.00 2.00 0.00 91 1019.7
20260831032902 73 319 0.0 0.0 0.00 2.00 0.00 91 1019.7
20260831032404 73 319 0.0 0.0 0.00 2.00 0.00 88 1019.7
20260831031903 73 319 0.0 0.0 0.00 2.00 0.00 88 1019.7
20260831031403 73 319 0.0 0.0 0.00 2.00 0.00 88 1019.7
20260831030903 73 319 0.0 0.0 0.00 2.00 0.00 88 1019.7
20260831030402 73 319 0.0 0.0 0.00 2.00 0.00 88 1019.7
20260831025903 73 319 0.0 0.0 0.00 2.00 0.00 88 1019.7
20260831025404 73 319 0.0 0.0 0.00 2.00 0.00 88 1019.7
20260831024903 73 319 0.0 0.9 0.00 2.00 0.00 88 1019.7
20260831024403 73 319 0.9 0.9 0.00 2.00 0.00 88 1019.7
20260831023903 73 319 0.0 0.0 0.00 2.00 0.00 88 1019.7
20260831023404 73 319 0.0 0.0 0.00 2.00 0.00 88 1019.5
20260831022902 73 319 0.0 0.0 0.00 2.00 0.00 88 1019.5
20260831021904 74 319 0.0 0.0 0.00 2.00 0.00 88 1019.5
20260831021403 74 319 0.9 0.9 0.00 2.00 0.00 88 1019.3
20260831020403 74 319 0.0 0.0 0.00 2.00 0.00 88 1019.3
20260831015903 74 319 0.0 0.0 0.00 2.00 0.00 88 1018.7
20260831015403 74 319 0.0 0.0 0.00 2.00 0.00 88 1018.7
20260831014902 74 319 0.0 0.0 0.00 2.00 0.00 88 1018.7
20260831014403 74 319 0.0 0.0 0.00 2.00 0.00 88 1018.7
20260831012904 74 319 0.0 0.0 0.00 2.00 0.00 88 1018.7
20260831012403 75 319 0.0 0.0 0.00 2.00 0.00 88 1018.7
20260831011902 75 319 0.0 0.0 0.00 2.00 0.00 88 1018.8
20260831011404 75 319 0.0 0.0 0.00 2.00 0.00 88 1018.8
20260831010903 75 319 0.0 0.0 0.00 2.00 0.00 86 1018.8
20260831010402 75 319 0.0 0.0 0.00 2.00 0.00 86 1018.8
20260831005903 75 319 0.0 0.0 0.00 2.00 0.00 86 1018.6
20260831005404 75 319 0.0 0.0 0.00 2.00 0.00 86 1018.6
20260831004902 75 319 0.0 0.0 0.00 2.00 0.00 86 1018.5
20260831004402 75 319 0.0 0.0 0.00 2.00 0.00 86 1018.5
20260831003904 76 319 0.0 0.0 0.00 2.00 0.00 86 1018.3
20260831002902 76 319 0.0 0.0 0.00 2.00 0.00 57 1018.4
20260831002404 76 319 0.0 0.0 0.00 2.00 0.00 57 1018.4
20260831001903 76 319 0.0 0.9 0.00 2.00 0.00 57 1018.4
20260831001402 76 319 0.9 0.9 0.00 2.00 0.00 57 1018.4
20260831000403 77 319 0.0 0.0 0.00 2.00 0.00 57 1018.4
20260830235903 82 319 0.0 0.0 0.00 2.00 0.00 57 1018.3
20260830235403 83 319 0.0 0.0 0.00 2.00 0.00 57 1018.3
20260830234904 83 319 0.0 0.0 0.00 2.00 0.00 57 1018.3
20260830234402 83 319 0.0 0.0 0.00 2.00 0.00 57 1018.3
20260830233903 83 319 0.0 0.0 0.00 2.00 0.00 57 1018.3
20260830233404 83 319 0.0 0.0 0.00 2.00 0.00 57 1018.3
20260830232902 83 319 0.0 0.0 0.00 2.00 0.00 57 1018.3
20260830232402 83 319 0.0 0.0 0.00 2.00 0.00 57 1018.3
20260830231904 83 319 0.0 0.0 0.00 2.00 0.00 57 1018.3
20260830231403 83 319 0.0 0.0 0.00 2.00 0.00 57 1018.4
20260830230403 83 319 0.0 0.0 0.00 2.00 0.00 57 1018.3
20260830225903 83 319 0.0 0.0 0.00 2.00 0.00 57 1018.2
20260830225403 83 319 0.0 0.0 0.00 2.00 0.00 57 1018.2
20260830224403 91 319 0.9 0.9 0.00 2.00 0.00 57 1018.4
20260830223903 91 319 1.7 1.7 0.00 2.00 0.00 57 1018.4
20260830223404 91 5 0.9 1.7 0.00 2.00 0.00 57 1018.4
20260830222902 91 5 1.7 1.7 0.00 2.00 0.00 57 1018.5
20260830222403 92 5 0.9 0.9 0.00 2.00 0.00 57 1018.3
20260830221904 92 265 0.9 0.9 0.00 2.00 0.00 57 1018.3
20260830221403 93 265 0.9 0.9 0.00 2.00 0.00 57 1018.2
20260830220903 93 265 0.0 0.0 0.00 2.00 0.00 57 1018.2
20260830220403 93 265 0.0 0.0 0.00 2.00 0.00 57 1018.2
20260830215903 93 265 0.0 0.0 0.00 2.00 0.00 61 1018.2
20260830215403 91 51 0.0 0.0 0.00 2.00 0.00 61 1018.2
20260830213902 91 51 0.0 0.0 0.00 2.00 0.00 61 1018.3
20260830213404 91 51 0.0 0.0 0.00 2.00 0.00 61 1018.3
20260830212903 90 51 0.0 0.0 0.00 2.00 0.00 61 1018.3
20260830211904 90 51 0.0 0.0 0.00 2.01 0.00 61 1018.4
20260830211403 91 51 0.0 0.0 0.00 2.04 0.00 61 1018.6
20260830210902 91 51 0.0 0.0 0.00 2.04 0.00 61 1018.6
20260830210405 91 51 0.0 0.0 0.00 2.04 0.00 61 1018.6
20260830205903 92 51 0.0 0.0 0.00 2.04 0.00 61 1018.5
20260830204903 92 51 0.0 0.0 0.00 2.04 0.00 61 1018.5
20260830203902 92 242 0.0 0.0 0.00 2.04 0.00 61 1018.7
20260830203402 92 201 0.0 0.0 0.00 2.04 0.00 61 1018.7
20260830202904 92 186 0.0 0.0 0.00 2.04 0.00 61 1018.9
20260830202403 92 214 0.0 0.0 0.00 2.04 0.00 61 1018.9
20260830201404 92 120 0.9 1.7 0.00 2.04 0.00 61 1019.0
20260830200903 91 249 0.0 1.7 0.00 2.04 0.00 61 1019.0
20260830200403 91 275 1.7 1.7 0.00 2.04 0.00 61 1019.1
20260830195904 91 275 1.7 1.7 0.00 2.04 0.00 61 1019.1
20260830195403 91 137 0.9 0.9 0.00 2.04 0.00 61 1019.1
20260830194904 91 52 0.9 0.9 0.00 2.04 0.00 61 1019.1
20260830194404 91 219 0.9 1.7 0.00 2.04 0.00 61 1019.4
20260830193903 91 194 1.7 1.7 0.00 2.04 0.00 61 1019.4
20260830193403 91 194 1.7 1.7 0.00 2.04 0.00 61 1019.4
20260830192905 91 256 0.9 1.7 0.00 2.04 0.00 61 1019.5
20260830192403 91 270 1.7 1.7 0.00 2.04 0.00 61 1019.7
20260830191404 90 198 1.7 2.6 0.00 2.04 0.00 61 1019.8
20260830190903 90 213 2.6 2.6 0.00 2.04 0.00 61 1019.8
20260830190403 90 218 2.6 6.1 0.00 2.04 0.00 61 1019.8
20260830185903 90 109 5.2 6.1 0.00 2.04 0.00 61 1019.9
20260830185404 91 163 2.6 2.6 0.00 2.04 0.00 61 1020.0
20260830184903 91 187 1.7 1.7 0.00 2.04 0.00 61 1020.0
20260830183903 89 126 2.6 2.6 0.00 2.04 0.00 61 1020.3
20260830183405 89 161 2.6 2.6 0.00 2.04 0.00 61 1020.3
20260830182403 88 248 1.7 1.7 0.00 2.04 0.00 61 1020.4